Regional Weather Roundup
Issued by NWS

Home | Current Version | Previous Version | Graphics & Text | Print | Product List | Glossary On
Versions: 1 2 3 4 5 6 7 8 9 10 11 12 13 14 15 16 17 18 19 20 21 22 23 24 25 26 27 28 29 30 31 32 33 34 35 36 37 38 39 40 41 42 43 44 45 46 47 48 49 50
278
ASUS43 KMKX 111811
RWRWI

WISCONSIN REGIONAL WEATHER ROUNDUP
NATIONAL WEATHER SERVICE MILWAUKEE/SULLIVAN WI
1200 PM CST THU FEB 11 2016

NOTE: "FAIR" INDICATES FEW OR NO CLOUDS BELOW 12,000 FEET WITH NO
SIGNIFICANT WEATHER AND/OR OBSTRUCTIONS TO VISIBILITY.

WIZ001-002-006>008-014>016-023>028-111900-
NORTHWEST WISCONSIN

CITY           SKY/WX    TMP DP  RH WIND       PRES   REMARKS
SUPERIOR ARPT  CLOUDY     8  -6  53 SW7       30.29F WCI  -4
6HR MIN TEMP: -12; 6HR MAX TEMP:   8;

ASHLAND        CLOUDY     9  -3  58 W8        30.27F WCI  -3
6HR MIN TEMP:  -5; 6HR MAX TEMP:   9;

HAYWARD        CLOUDY     6  -5  60 SW6       30.24F WCI  -4
6HR MIN TEMP: -21; 6HR MAX TEMP:   6;

SIREN          SUNNY     10  -7  44 SW6       30.28F WCI   1
6HR MIN TEMP: -17; 6HR MAX TEMP:  10;

CUMBERLAND     SUNNY      9  -8  47 S7        30.25F WCI  -3
RICE LAKE      MOSUNNY    8  -6  53 CALM      30.29F
6HR MIN TEMP: -13; 6HR MAX TEMP:   8;

CHETEK         SUNNY      9  -5  52 SW5       30.28F WCI   1
6HR MIN TEMP: -15; 6HR MAX TEMP:   9;

LADYSMITH      CLOUDY     9   0  66 CALM      30.26F
6HR MIN TEMP: -19; 6HR MAX TEMP:   9;

EAU CLAIRE     SUNNY      7  -6  55 SW6       30.30F WCI  -3
6HR MIN TEMP: -10; 6HR MAX TEMP:   8; 6HR PCP: TRACE;

MENOMONIE      SUNNY     21  -5  31 SE3       30.31F
6HR MIN TEMP:  -7; 6HR MAX TEMP:  22;

NEW RICHMOND   PTSUNNY   11  -5  48 SW6       30.30F WCI   2
6HR MIN TEMP: -11; 6HR MAX TEMP:  11;

OSCEOLA        MOSUNNY   11  -4  49 CALM      30.33F
6HR MIN TEMP:  -8; 6HR MAX TEMP:  11;

$$

WIZ003>005-009-010-017-018-111900-
NORTH CENTRAL WISCONSIN

CITY           SKY/WX    TMP DP  RH WIND       PRES   REMARKS
MANITOWISH WTR MOSUNNY    8  -2  63 W8        30.16F WCI  -5
6HR MIN TEMP:  -4; 6HR MAX TEMP:   8;

ARBOR VITAE    MOSUNNY   11  -3  52 NW7       30.16F WCI   1
6HR MIN TEMP:  -1; 6HR MAX TEMP:  11;

WOODRUFF       MOSUNNY   11  -3  52 NW7       30.16F WCI   1
6HR MIN TEMP:  -1; 6HR MAX TEMP:  11;

RHINELANDER    CLOUDY    12  -3  51 W10       30.16F WCI  -1
6HR MIN TEMP:  -7; 6HR MAX TEMP:  12; 6HR PCP: TRACE;

EAGLE RIVER    SUNNY     11  -3  52 W3        30.14F
LAND O LAKES   MOSUNNY   13   1  57 W7        30.14F WCI   3
6HR MIN TEMP:   1; 6HR MAX TEMP:  13;

PHILLIPS       CLOUDY     7  -3  64 SW6       30.20F WCI  -3
6HR MIN TEMP: -14; 6HR MAX TEMP:   7;

TOMAHAWK       SUNNY     12  -6  43 W10       30.19F WCI  -1
6HR MIN TEMP: -11; 6HR MAX TEMP:  12;

MEDFORD        SUNNY      9  -2  61 W7        30.20F WCI  -2
6HR MIN TEMP: -13; 6HR MAX TEMP:   9;

MERRILL        SUNNY     14  -3  47 W6        30.22S WCI   5
6HR MIN TEMP: -10; 6HR MAX TEMP:  14;

$$

WIZ029-030-035-036-043>047-111900-
CENTRAL WISCONSIN

CITY           SKY/WX    TMP DP  RH WIND       PRES   REMARKS
WAUSAU         SUNNY     12  -2  53 NW9       30.22F WCI   0
6HR MIN TEMP:  -4; 6HR MAX TEMP:  12;

MOSINEE        SUNNY     10   0  61 CALM      30.24F
MARSHFIELD     SUNNY      9  -3  58 W9        30.24F WCI  -4
6HR MIN TEMP: -10; 6HR MAX TEMP:   9;

STEVENS POINT  SUNNY     10  -4  53 W8        30.26F WCI  -2
6HR MIN TEMP: -11; 6HR MAX TEMP:  10;

WAUPACA        SUNNY     17   0  46 W10       30.28F WCI   5
6HR MIN TEMP:   0; 6HR MAX TEMP:  18;

WAUTOMA        SUNNY     14  -3  47 W8        30.30F WCI   3
6HR MIN TEMP:  -3; 6HR MAX TEMP:  14;

WISC RAPIDS    SUNNY     12  -6  44 W6        30.29F WCI   3
6HR MIN TEMP: -10; 6HR MAX TEMP:  12;

CAMP DOUGLAS   MOSUNNY   12   0  57 W7        30.30F WCI   2
$$

WIZ011>013-019>022-031-037>040-048>050-111900-
NORTHEAST WISCONSIN

CITY           SKY/WX    TMP DP  RH WIND       PRES   REMARKS
ANTIGO         SUNNY     12  -2  52 NW9       30.17F WCI   0
6HR MIN TEMP:  -6; 6HR MAX TEMP:  12;

SHAWANO        SUNNY     17   2  51 W7        30.26S WCI   7
6HR MIN TEMP:   1; 6HR MAX TEMP:  17;

OCONTO         SUNNY     14   0  54 W9        30.26S WCI   2
6HR MIN TEMP:  -4; 6HR MAX TEMP:  14;

STURGEON BAY   SUNNY     12   0  57 NW9       30.25F WCI   0
6HR MIN TEMP:   1; 6HR MAX TEMP:  12;

GREEN BAY      SUNNY     13   1  59 W10       30.27S WCI   0
6HR MIN TEMP:  -4; 6HR MAX TEMP:  13;

MANITOWOC      SUNNY     16   2  54 W9        30.28  WCI   4
APPLETON       SUNNY     12   0  57 W10       30.26S WCI  -1
CLINTONVILLE   SUNNY     16   0  48 W12       30.26F WCI   3
OSHKOSH        SUNNY     13   1  59 W9        30.28S WCI   1
6HR MIN TEMP:  -2; 6HR MAX TEMP:  13;

$$

WIZ032>034-041-042-053>061-111900-
SOUTHWEST WISCONSIN

CITY           SKY/WX    TMP DP  RH WIND       PRES   REMARKS
LA CROSSE      SUNNY     12  -2  53 CALM      30.35F
6HR MIN TEMP:  -6; 6HR MAX TEMP:  12;

SPARTA         SUNNY     13  -2  52 NW3       30.32F
6HR MIN TEMP: -19; 6HR MAX TEMP:  13;

VIROQUA        SUNNY     12  -4  48 CALM      30.28F
6HR MIN TEMP:  -3; 6HR MAX TEMP:  12;

BOSCOBEL       SUNNY     16  -2  45 S7        30.35F WCI   6
6HR MIN TEMP:  -6; 6HR MAX TEMP:  16;

PRAIRIE DU CHI SUNNY     15  -3  45 CALM      30.36F
6HR MIN TEMP:  -2; 6HR MAX TEMP:  15;

PLATTEVILLE    SUNNY     13   1  58 CALM      30.32F
6HR MIN TEMP:   1; 6HR MAX TEMP:  13;

$$

WIZ056-057-062-063-064-067-068-111900-
SOUTH CENTRAL WISCONSIN

CITY           SKY/WX    TMP DP  RH WIND       PRES   REMARKS
REEDSBURG      SUNNY     11  -3  52 W6        30.31F WCI   2
6HR MIN TEMP: -10; 6HR MAX TEMP:  11;

BARABOO/DELLS  SUNNY     12  -3  51 W7        30.30F WCI   1
6HR MIN TEMP:  -8; 6HR MAX TEMP:  12;

LONE ROCK      SUNNY     14  -2  49 SW6       30.34F WCI   5
6HR MIN TEMP:  -7; 6HR MAX TEMP:  14;

MINERAL POINT  SUNNY     16   0  48 CALM      30.30F
MADISON        PTSUNNY   13  -1  54 CALM      30.31F
6HR MIN TEMP:   0; 6HR MAX TEMP:  13;

MIDDLETON      SUNNY     15   0  51 NW5       30.32S WCI   8
6HR MIN TEMP:  -1; 6HR MAX TEMP:  15;

WATERTOWN      SUNNY     14   2  59 NW7       30.30F WCI   4
6HR MIN TEMP:   1; 6HR MAX TEMP:  14;

MONROE         SUNNY     18   1  49 W6        30.30S WCI   9
JANESVILLE     SUNNY     18   1  49 NW6       30.32S WCI   9
$$

WIZ051-052-058>065-066-070>072-111900-
SOUTHEAST WISCONSIN

CITY           SKY/WX    TMP DP  RH WIND       PRES   REMARKS
MILWAUKEE      MOSUNNY   16   0  49 NW8       30.31S WCI   5
6HR MIN TEMP:   5; 6HR MAX TEMP:  16;

WAUKESHA       SUNNY     12   0  57 W9        30.30S WCI   0
MILWAUKEE/TIMM SUNNY     -2  -2 100 NW8       30.31S WCI -17
RACINE         SUNNY     16  -1  47 W8        30.32S WCI   5
6HR MIN TEMP:   4; 6HR MAX TEMP:  16;

BURLINGTON     SUNNY     15   0  51 W8        30.31S WCI   4
6HR MIN TEMP:  -1; 6HR MAX TEMP:  15;

KENOSHA        SUNNY     16   2  54 VRB7      30.31S WCI   6
6HR MIN TEMP:   4; 6HR MAX TEMP:  16;

FOND DU LAC    SUNNY     12   0  58 W9        30.29S WCI   0
6HR MIN TEMP:   1; 6HR MAX TEMP:  13; 6HR PCP: TRACE;

SHEBOYGAN      SUNNY     13   0  56 W10       30.28S WCI   0
6HR MIN TEMP:   1; 6HR MAX TEMP:  13;

WEST BEND      SUNNY     14   0  52 CALM      30.28S
JUNEAU         SUNNY     11   0  60 W6        30.30F WCI   2
6HR MIN TEMP:  -1; 6HR MAX TEMP:  11;

$$

LSZ147-162-111900-
LAKE SUPERIOR

STATION/POSITION TIME  TEMP    WIND        PRES    WAVE
                       AIR SEA DIR/SP/G            HT/PER
                 (UTC) (F)     (DEG/KT/KT) (MB)    (FT/S)
DEVILS ISLAND    1800   12     260/ 14/ 17 1025.4F
SAXON HARBOR     1740   10                 1024.7F
$$

LMZ867-665-643>646-111900-
LAKE MICHIGAN

STATION/POSITION TIME  TEMP    WIND        PRES    WAVE
                       AIR SEA DIR/SP/G            HT/PER
                 (UTC) (F)     (DEG/KT/KT) (MB)    (FT/S)
CHAMBERS ISLAND  1700   15     250/  6/  9 1024.0R
ALGOMA LAKESHORE 1711          320/  6/ 12   N/A
KEWAUNEE LAKESHO 1700   12     300/ 10/ 14 1023.8F
SHEBOYGAN LAC1F1C2F2C3F3C4F4C5F5C6F6C7F7C8M1C9M2Ca!



USA.gov is the U.S. government's official web portal to all federal, state and local government web resources and services.